Location: French Creek State Gamelands
(40.1750°N, 75.7969°W)
Time: 22:15:11
(UTC-04:00)

ISS - All Passes

Search period start: 16 April 2014 00:00
Search period end: 26 April 2014 00:00
Orbit: 414 x 420 km, 51.6° (Epoch: 16 April)

Date Brightness Start Highest point End Pass type
(mag) Time Alt. Az. Time Alt. Az. Time Alt. Az.
16 Apr - 00:00:00 20° SE 23:59:45 23° SE 00:01:10 10° SE night (unlit)
16 Apr - 16:36:38 10° SW 16:39:53 51° SE 16:43:09 10° ENE daylight
16 Apr - 18:14:00 10° W 18:16:48 24° NNW 18:19:38 10° NNE daylight
16 Apr - 19:53:06 10° NNW 19:54:30 12° N 19:55:53 10° NNE daylight
16 Apr - 21:30:06 10° NNW 21:32:20 16° NNE 21:34:34 10° ENE visible
16 Apr - 23:06:15 10° NW 23:09:36 65° NE 23:12:56 10° ESE visible
17 Apr - 00:44:14 10° W 00:45:59 14° SW 00:47:44 10° SSW night (unlit)
17 Apr - 15:48:49 10° SSW 15:51:44 28° SE 15:54:39 10° ENE daylight
17 Apr - 17:25:19 10° W 17:28:25 34° NNW 17:31:32 10° NE daylight
17 Apr - 19:04:15 10° NW 19:05:56 13° N 19:07:38 10° NNE daylight
17 Apr - 20:42:00 10° NNW 20:43:49 14° NNE 20:45:38 10° NE visible
17 Apr - 22:18:05 10° NW 22:21:17 39° NNE 22:24:28 10° ESE visible
17 Apr - 23:55:08 10° WNW 23:57:53 23° SW 00:00:38 10° S night (unlit)
18 Apr - 15:01:26 10° S 15:03:35 16° SE 15:05:46 10° E daylight
18 Apr - 16:36:45 10° WSW 16:40:02 54° NNW 16:43:21 10° NE daylight
18 Apr - 18:15:18 10° NW 18:17:22 15° NNW 18:19:27 10° NNE daylight
18 Apr - 19:53:45 10° NNW 19:55:14 12° N 19:56:42 10° NNE daylight
18 Apr - 21:29:56 10° NW 21:32:51 27° NNE 21:35:47 10° E visible
18 Apr - 23:06:30 10° WNW 23:09:42 41° SW 23:12:53 10° SSE visible
19 Apr - 15:48:21 10° SW 15:51:41 87° SE 15:55:03 10° NE daylight
19 Apr - 17:26:19 10° WNW 17:28:48 19° NNW 17:31:17 10° NNE daylight
19 Apr - 19:05:17 10° NNW 19:06:35 12° N 19:07:53 10° NNE daylight
19 Apr - 20:41:46 10° NNW 20:44:20 20° NNE 20:46:55 10° ENE visible
19 Apr - 22:18:03 10° NW 22:21:25 77° SW 22:24:45 10° SE visible
20 Apr - 15:00:08 10° SSW 15:03:21 47° SE 15:06:36 10° ENE daylight
20 Apr - 16:37:24 10° W 16:40:14 25° NNW 16:43:06 10° NNE daylight
20 Apr - 18:16:30 10° NNW 18:17:54 12° N 18:19:18 10° NNE daylight
20 Apr - 19:53:34 10° NNW 19:55:44 16° NNE 19:57:54 10° NE daylight
20 Apr - 21:29:41 10° NW 21:33:01 61° NE 21:36:20 10° ESE visible
20 Apr - 23:07:29 10° W 23:09:25 15° SW 23:11:20 10° SSW visible
21 Apr - 14:12:12 10° SSW 14:15:03 26° SE 14:17:54 10° ENE daylight
21 Apr - 15:48:34 10° W 15:51:41 36° NNW 15:54:50 10° NE daylight
21 Apr - 17:27:28 10° NW 17:29:11 13° N 17:30:54 10° NNE daylight
21 Apr - 19:05:17 10° NNW 19:07:03 13° N 19:08:48 10° NE daylight
21 Apr - 20:41:22 10° NW 20:44:31 37° NNE 20:47:41 10° E visible
21 Apr - 22:18:20 10° WNW 22:21:09 25° SW 22:23:58 10° S visible
22 Apr - 13:24:46 10° SSE 13:26:46 15° SE 13:28:46 10° E daylight
22 Apr - 14:59:52 10° WSW 15:03:10 58° NW 15:06:29 10° NE daylight
22 Apr - 16:38:20 10° NW 16:40:27 16° NNW 16:42:35 10° NNE daylight
22 Apr - 18:16:53 10° NNW 18:18:18 12° N 18:19:43 10° NNE daylight
22 Apr - 19:53:03 10° NW 19:55:56 26° NNE 19:58:48 10° E daylight
22 Apr - 21:29:34 10° WNW 21:32:48 45° SW 21:36:00 10° SSE visible
23 Apr - 14:11:20 10° SW 14:14:39 80° SE 14:18:00 10° NE daylight
23 Apr - 15:49:12 10° WNW 15:51:44 20° NNW 15:54:16 10° NNE daylight
23 Apr - 17:28:12 10° NNW 17:29:29 12° N 17:30:46 10° NNE daylight
23 Apr - 19:04:44 10° NNW 19:07:15 19° NNE 19:09:45 10° ENE daylight
23 Apr - 20:40:58 10° NW 20:44:20 83° SW 20:47:41 10° SE visible
24 Apr - 13:23:00 10° SSW 13:26:10 43° SE 13:29:22 10° ENE daylight
24 Apr - 15:00:08 10° W 15:03:01 26° NNW 15:05:54 10° NE daylight
24 Apr - 16:39:13 10° NNW 16:40:38 12° N 16:42:04 10° NNE daylight
24 Apr - 18:16:22 10° NNW 18:18:28 15° NNE 18:20:34 10° NE daylight
24 Apr - 19:52:28 10° NW 19:55:46 56° NE 19:59:04 10° ESE daylight
24 Apr - 21:30:05 10° W 21:32:11 16° SW 21:34:17 10° S visible
25 Apr - 12:34:58 10° S 12:37:43 24° SE 12:40:28 10° ENE daylight
25 Apr - 14:11:10 10° W 14:14:19 38° NNW 14:17:29 10° NE daylight
25 Apr - 15:50:00 10° NW 15:51:46 14° N 15:53:32 10° NNE daylight
25 Apr - 17:27:56 10° NNW 17:29:37 13° N 17:31:18 10° NE daylight
25 Apr - 19:03:59 10° NW 19:07:06 35° NNE 19:10:13 10° E daylight
25 Apr - 20:40:51 10° WNW 20:43:45 27° SW 20:46:39 10° SSE visible
